CAPE
0 0 0 0 0 0 0 0 0 0 0 0 0 0 0 0 0 0 0 0 0 12 23 168 296 261 1624 1613 133 50 100 13 32 52 34 84 74 79 203 146 64 109 142 269 283
0 0 0 0 0 0 0 0 0 0 0 0 0 0 0 0 0 0 0 0 0 3 0 0 0 45 241 741 47 138 87 85 301 157 89 45 10 187 228 92 44 39 94 347 381
0 0 0 0 0 0 0 0 0 0 0 0 0 0 0 0 0 0 0 0 0 0 0 0 0 5 41 247 48 21 73 101 287 60 110 31 113 165 281 155 30 0 66 404 612
1 0 0 0 0 0 0 0 0 0 0 0 0 0 0 0 0 0 0 0 0 0 0 0 0 0 12 69 85 18 144 163 388 263 9 125 204 315 168 155 37 0 1 390 536
0 0 0 0 0 0 0 0 0 0 0 0 0 0 0 0 0 0 0 0 0 0 0 0 0 0 14 39 115 81 35 39 297 80 140 359 296 215 225 168 105 37 21 5 10
0 0 0 0 0 0 0 0 0 0 0 0 0 0 0 0 0 0 0 0 0 0 0 0 0 0 0 61 49 144 101 19 32 110 147 222 178 219 249 178 111 66 21 27 11
0 0 0 0 0 0 0 0 0 0 0 0 0 0 0 0 0 0 0 0 0 0 0 0 0 0 0 29 52 43 15 92 65 23 13 112 234 204 242 255 235 168 148 151 108
0 0 0 0 0 0 0 0 0 0 0 0 0 0 0 0 0 0 0 0 0 0 0 0 0 0 0 11 45 43 23 9 165 49 51 3 164 193 187 237 227 181 176 195 191
1 0 0 0 0 0 0 0 0 0 0 0 0 0 0 0 0 0 0 0 0 0 0 0 0 0 0 0 16 15 0 5 65 281 247 53 72 170 168 204 228 174 162 168 168
0 0 0 0 0 0 0 0 0 0 0 0 0 0 0 0 0 0 0 0 0 0 0 0 0 0 0 0 0 4 11 33 39 177 214 160 123 77 225 254 234 189 181 177 150
0 0 0 0 0 0 0 0 0 0 0 0 0 0 0 0 0 0 0 0 0 0 0 0 0 0 0 0 0 5 9 15 17 43 130 82 57 156 175 437 229 171 165 179 114
0 0 0 0 0 0 0 0 0 0 0 0 0 0 0 0 0 0 0 0 0 0 0 0 0 0 0 0 0 0 16 30 11 24 20 53 272 238 230 462 564 266 161 138 110
0 0 0 0 0 0 0 0 0 0 0 0 0 0 0 0 0 0 0 0 0 0 0 0 0 0 0 0 0 0 1 38 2 2 0 82 186 202 169 538 678 801 260 136 124
0 0 0 0 0 0 0 0 0 0 0 0 0 0 0 0 0 0 0 0 0 0 0 0 0 0 0 0 0 0 1 54 24 49 41 0 11 165 147 269 426 757 679 296 233
0 0 0 0 0 0 0 0 0 0 0 0 0 0 0 0 0 0 0 0 0 0 0 0 0 0 0 0 0 0 0 45 58 86 21 0 5 17 286 363 385 570 652 459 375
0 0 0 0 0 0 0 0 0 0 0 0 0 0 0 0 0 0 0 0 0 0 0 0 0 0 0 0 0 0 0 4 100 70 49 0 5 56 419 221 302 225 344 595 543
0 0 0 0 0 0 0 0 0 0 0 0 0 0 0 0 0 0 0 0 0 0 0 0 0 0 0 0 0 0 0 0 0 15 0 0 1 47 333 92 125 264 64 383 730
0 0 0 0 0 0 0 0 0 0 0 0 0 0 0 0 0 0 0 0 0 0 0 0 0 0 0 0 0 0 0 0 0 0 0 0 1 0 8 0 5 0 139 243 817
0 0 0 0 0 0 0 0 0 0 0 0 0 0 0 0 0 0 0 0 0 0 0 0 0 0 0 0 0 0 0 0 0 0 0 0 0 0 46 315 271 300 356 357 795
0 0 0 0 0 0 0 0 0 0 0 0 0 0 0 0 0 0 0 0 0 0 0 0 0 0 0 0 0 0 0 0 0 0 0 0 29 0 35 510 525 610 640 688 836
0 0 0 0 0 0 0 0 0 0 0 0 0 0 0 0 0 0 0 0 0 0 0 0 0 0 0 0 0 0 0 0 0 0 0 2 70 28 300 517 529 395 388 796 760
0 0 0 0 0 0 0 0 0 0 0 0 0 0 0 0 0 0 0 0 0 0 0 0 0 0 0 0 0 0 0 0 0 0 0 48 134 82 165 96 262 234 202 530 210
0 0 0 0 0 0 0 0 0 0 0 0 0 0 0 0 0 0 0 0 0 0 0 0 0 0 0 0 0 0 0 0 0 0 0 37 248 377 334 343 333 186 78 0 22
0 0 0 0 0 0 0 0 0 0 0 0 0 0 0 0 0 0 0 0 0 0 0 0 0 0 0 0 0 0 0 0 0 0 20 306 423 501 564 532 580 615 582 634 1147
0 0 0 0 0 0 0 0 0 0 0 0 0 0 0 0 5 1 0 0 0 0 0 0 0 0 0 0 65 43 0 0 0 0 122 529 583 705 912 902 536 221 1089 958 1699
0 0 0 0 0 0 0 0 0 0 0 0 0 0 0 0 28 63 0 0 0 0 0 0 0 0 0 0 71 266 267 13 140 234 412 386 530 309 6 190 1564 1515 1844 1935 1937
0 0 0 0 0 0 0 0 0 0 0 0 0 0 20 7 2 26 20 0 0 0 0 0 0 0 1 12 69 193 305 230 146 338 263 385 390 98 64 71 310 1127 928 1378 1561
CIN
-0 -0 -0 -0 -0 -0 -0 -0 -0 -0 -0 -0 -0 -0 -0 -0 -0 -0 -0 -0 -0 -675 -422 -432 -341 -248 -236 -147 -143 -246 -52 -70 -43 -53 -50 -56 -138 -158 -135 -150 -196 -226 -223 -214 -190
-0 -0 -0 -0 -0 -0 -0 -0 -0 -0 -0 -0 -0 -0 -0 -0 -0 -0 -0 -0 -0 -76 -0 -0 -0 -248 -169 -119 -159 -45 -111 -114 -85 -114 -88 -64 -112 -152 -136 -195 -184 -245 -356 -237 -226
-0 -0 -0 -0 -0 -0 -0 -0 -0 -0 -0 -0 -0 -0 -0 -0 -0 -0 -0 -0 -0 -0 -0 -0 -0 -196 -142 -80 -59 -90 -71 -116 -135 -210 -204 -138 -79 -106 -120 -162 -220 -2 -344 -187 -158
-0 -0 -0 -0 -0 -0 -0 -0 -0 -0 -0 -0 -0 -0 -0 -0 -0 -0 -0 -0 -0 -0 -0 -0 -0 -0 -124 -94 -109 -219 -125 -184 -266 -231 -128 -137 -197 -66 -102 -147 -230 -33 -18 -206 -138
-0 -0 -0 -0 -0 -0 -0 -0 -0 -0 -0 -0 -0 -0 -0 -0 -0 -0 -0 -0 -0 -0 -0 -0 -0 -0 -162 -177 -138 -98 -77 -180 -228 -228 -201 -144 -91 -56 -96 -172 -218 -254 -239 -254 -218
-0 -0 -0 -0 -0 -0 -0 -0 -0 -0 -0 -0 -0 -0 -0 -0 -0 -0 -0 -0 -0 -0 -0 -0 -0 -0 -0 -167 -89 -105 -279 -284 -283 -197 -170 -110 -125 -145 -168 -206 -215 -242 -249 -205 -228
-0 -0 -0 -0 -0 -0 -0 -0 -0 -0 -0 -0 -0 -0 -0 -0 -0 -0 -0 -0 -0 -0 -0 -0 -0 -0 -1 -223 -273 -268 -238 -225 -215 -230 -170 -182 -100 -137 -194 -226 -221 -236 -249 -202 -177
-0 -0 -0 -0 -0 -0 -0 -0 -0 -0 -0 -0 -0 -0 -0 -0 -0 -0 -0 -0 -0 -0 -0 -0 -0 -0 -0 -258 -287 -254 -227 -74 -148 -237 -226 -138 -129 -175 -221 -222 -237 -269 -258 -222 -194
-0 -0 -0 -0 -0 -0 -0 -0 -0 -0 -0 -0 -0 -0 -0 -0 -0 -0 -0 -0 -0 -0 -0 -0 -0 -0 -0 -0 -173 -221 -0 -113 -188 -167 -200 -187 -87 -160 -216 -203 -225 -218 -246 -240 -211
-0 -0 -0 -0 -0 -0 -0 -0 -0 -0 -0 -0 -0 -0 -0 -0 -0 -0 -0 -0 -0 -0 -0 -0 -0 -0 -0 -0 -0 -138 -129 -142 -137 -132 -221 -157 -150 -127 -193 -236 -222 -210 -207 -221 -196
-0 -0 -0 -0 -0 -0 -0 -0 -0 -0 -0 -0 -0 -0 -0 -0 -0 -0 -0 -0 -0 -0 -0 -0 -0 -0 -0 -0 -0 -167 -162 -99 -178 -155 -166 -202 -208 -146 -174 -187 -237 -201 -189 -192 -201
-0 -0 -0 -0 -0 -0 -0 -0 -0 -0 -0 -0 -0 -0 -0 -0 -0 -0 -0 -0 -0 -0 -0 -0 -0 -0 -0 -0 -0 -0 -156 -111 -90 -145 -177 -152 -86 -126 -155 -174 -172 -191 -197 -174 -215
-0 -0 -0 -0 -0 -0 -0 -0 -0 -0 -0 -0 -0 -0 -0 -0 -0 -0 -0 -0 -0 -0 -0 -0 -0 -0 -0 -0 -0 -0 -22 -109 -35 -49 -0 -125 -124 -123 -167 -165 -174 -185 -212 -207 -203
-0 -0 -0 -0 -0 -0 -0 -0 -0 -0 -0 -0 -0 -0 -0 -0 -0 -0 -0 -0 -0 -0 -0 -0 -0 -0 -0 -0 -0 -0 -17 -40 -43 -72 -80 -0 -83 -130 -179 -163 -192 -205 -154 -225 -230
-0 -0 -0 -0 -0 -0 -0 -0 -0 -0 -0 -0 -0 -0 -0 -0 -0 -0 -0 -0 -0 -0 -0 -0 -0 -0 -0 -0 -0 -0 -0 -63 -38 -68 -101 -0 -53 -123 -177 -122 -158 -159 -220 -196 -241
-0 -0 -0 -0 -0 -0 -0 -0 -0 -0 -0 -0 -0 -0 -0 -0 -0 -0 -0 -0 -0 -0 -0 -0 -0 -0 -0 -0 -0 -0 -0 -60 -101 -120 -51 -15 -42 -88 -119 -91 -119 -188 -172 -165 -196
-0 -0 -0 -0 -0 -0 -0 -0 -0 -0 -0 -0 -0 -0 -0 -0 -0 -0 -0 -0 -0 -0 -0 -0 -0 -0 -0 -0 -0 -0 -0 -0 -0 -113 -0 -0 -23 -49 -94 -122 -105 -106 -103 -138 -168
-0 -0 -0 -0 -0 -0 -0 -0 -0 -0 -0 -0 -0 -0 -0 -0 -0 -0 -0 -0 -0 -0 -0 -0 -0 -0 -0 -0 -0 -0 -0 -0 -0 -0 -0 -0 -34 -3 -170 -12 -15 -0 -158 -157 -139
-0 -0 -0 -0 -0 -0 -0 -0 -0 -0 -0 -0 -0 -0 -0 -0 -0 -0 -0 -0 -0 -0 -0 -0 -0 -0 -0 -0 -0 -0 -0 -0 -0 -0 -0 -0 -0 -0 -191 -137 -110 -126 -144 -124 -123
-0 -0 -0 -0 -0 -0 -0 -0 -0 -0 -0 -0 -0 -0 -0 -0 -0 -0 -0 -0 -0 -0 -0 -0 -0 -0 -0 -0 -0 -0 -0 -0 -0 -0 -0 -0 -25 -0 -108 -65 -80 -65 -127 -157 -150
-0 -0 -0 -0 -0 -0 -0 -0 -0 -0 -0 -0 -0 -0 -0 -0 -0 -0 -0 -0 -0 -0 -0 -0 -0 -0 -0 -0 -0 -0 -0 -0 -0 -0 -0 -25 -43 -428 -73 -87 -50 -63 -73 -97 -118
-0 -0 -0 -0 -0 -0 -0 -0 -0 -0 -0 -0 -0 -0 -0 -0 -0 -0 -0 -0 -0 -0 -0 -0 -0 -0 -0 -0 -0 -0 -0 -0 -0 -0 -0 -67 -123 -491 -182 -237 -149 -108 -160 -110 -254
-0 -0 -0 -0 -0 -0 -0 -0 -0 -0 -0 -0 -0 -0 -0 -0 -0 -0 -0 -0 -0 -0 -0 -0 -0 -0 -0 -0 -0 -0 -0 -0 -0 -0 -0 -36 -145 -464 -319 -219 -233 -189 -215 -0 -202
-0 -0 -0 -0 -0 -0 -0 -0 -0 -0 -0 -0 -0 -0 -0 -0 -0 -0 -0 -0 -0 -0 -0 -0 -0 -0 -0 -0 -0 -0 -0 -0 -0 -0 -72 -85 -170 -264 -189 -200 -182 -186 -183 -174 -229
-0 -0 -0 -0 -0 -0 -0 -0 -0 -0 -0 -0 -0 -0 -0 -0 -53 -36 -0 -0 -0 -0 -0 -0 -0 -0 -0 -0 -55 -44 -0 -0 -0 -0 -23 -160 -155 -176 -206 -163 -254 -319 -151 -156 -174
-0 -0 -0 -0 -0 -0 -0 -0 -0 -0 -0 -0 -0 -0 -0 -0 -66 -59 -0 -0 -0 -0 -0 -0 -0 -0 -0 -0 -57 -43 -70 -126 -114 -164 -176 -249 -164 -456 -379 -269 -118 -112 -100 -79 -77
-0 -0 -0 -0 -0 -0 -0 -0 -0 -0 -0 -0 -0 -0 -39 -50 -54 -118 -122 -0 -0 -0 -0 -0 -0 -0 -72 -64 -43 -49 -130 -77 -133 -194 -151 -99 -143 -552 -384 -305 -106 -115 -161 -96 -66
Wind_Speed
25 26 26 26 26 26 26 25 23 22 21 20 20 20 21 22 22 21 23 23 19 21 20 18 14 13 15 14 24 13 17 22 17 24 24 24 24 23 25 27 25 16 26 32 33
26 27 27 27 27 28 28 27 26 25 24 23 21 21 21 22 21 24 25 26 24 17 18 15 11 9 15 16 16 21 23 23 23 3 15 15 25 27 26 27 22 27 27 32 33
27 28 28 28 29 29 29 29 28 27 26 24 24 23 22 20 20 23 24 27 25 23 20 17 13 14 15 20 16 18 23 22 26 24 12 13 18 18 26 24 26 28 29 32 32
28 29 29 29 30 30 30 30 30 29 27 26 25 24 23 18 14 18 20 21 13 24 21 18 13 11 22 23 15 19 15 20 21 19 17 15 11 17 21 20 26 28 30 31 30
29 30 30 30 31 31 31 31 31 30 28 27 26 24 20 19 24 20 22 17 15 24 23 20 13 18 25 21 19 17 17 23 24 22 18 10 12 16 21 26 28 28 29 29 28
30 30 31 31 32 32 32 32 31 30 29 28 26 24 19 24 19 21 5 15 18 25 25 6 12 18 22 24 19 18 16 18 19 19 17 14 12 19 25 27 27 27 28 28 26
30 31 32 32 34 34 34 34 32 31 29 27 24 20 22 29 15 14 20 21 22 6 25 26 15 15 19 20 19 21 21 19 20 20 21 15 18 22 25 26 26 25 26 27 26
31 32 33 33 34 35 35 35 33 29 26 24 20 18 25 23 25 27 24 25 25 27 4 27 18 3 16 17 18 20 20 21 17 19 17 17 19 22 24 23 22 23 24 25 25
32 33 34 35 35 36 36 35 31 24 20 17 18 19 26 26 23 26 21 21 24 23 20 23 18 8 10 11 12 15 17 20 15 17 14 16 18 20 20 20 19 19 21 22 24
32 33 34 35 36 36 36 31 22 20 17 17 21 22 22 17 18 18 23 17 15 19 12 6 11 9 10 11 10 11 15 21 18 17 13 10 14 16 21 18 18 17 19 21 22
33 34 35 35 35 35 30 20 22 19 21 26 24 26 29 19 25 18 16 15 17 15 9 11 7 4 2 2 9 6 15 14 12 12 14 12 17 19 22 15 18 19 19 20 21
34 34 35 35 36 30 19 19 21 24 31 31 35 34 35 24 22 15 9 9 12 14 13 13 10 2 4 11 10 9 8 9 13 12 12 15 15 16 18 17 19 18 19 20 20
34 34 35 35 32 17 25 23 26 28 27 31 25 26 24 16 21 19 9 13 16 17 14 10 13 2 2 5 8 7 3 5 18 10 10 11 9 6 14 19 17 21 21 22 22
34 34 34 35 19 26 22 23 28 22 23 22 17 20 19 18 24 21 16 14 17 18 18 16 9 6 7 2 8 11 3 11 7 9 6 8 6 5 11 20 22 18 20 22 24
34 34 33 30 28 25 25 26 26 17 19 13 11 12 12 14 17 18 16 17 19 15 13 16 12 7 8 14 13 24 0 12 3 8 10 12 14 15 8 12 24 22 22 21 26
35 34 33 24 24 22 26 26 19 15 17 13 8 8 8 16 19 13 11 15 18 24 25 27 22 15 14 23 7 19 9 6 8 7 9 11 10 12 7 10 21 25 21 20 23
36 36 34 26 24 21 24 19 15 14 16 13 11 6 6 10 22 19 18 13 18 19 25 25 28 25 22 27 19 14 12 11 8 6 10 10 15 15 10 13 18 21 22 16 21
37 37 30 28 25 21 18 13 12 13 17 17 12 6 9 13 19 22 11 11 21 18 18 18 21 22 15 16 17 18 14 10 12 11 12 16 18 22 7 9 23 13 18 17 19
36 30 29 25 8 10 13 14 11 10 15 18 13 7 15 17 16 12 10 10 15 13 14 14 19 21 22 18 14 20 19 16 13 14 17 19 20 13 11 14 14 16 14 13 21
31 28 26 17 1 10 15 19 16 13 19 19 15 14 9 9 17 12 11 19 16 11 9 19 26 24 29 15 17 14 11 14 14 14 19 17 18 11 6 12 14 16 17 16 13
24 24 20 3 7 15 19 21 25 26 23 18 23 22 12 12 12 8 14 26 4 8 6 14 18 27 13 5 2 14 16 14 15 14 14 14 17 22 9 12 10 12 13 14 14
21 20 13 6 14 18 21 21 24 30 28 27 17 11 18 17 29 29 25 29 22 20 9 5 13 17 17 25 14 10 16 17 21 16 16 14 14 14 5 5 10 12 15 13 11
23 21 21 17 24 24 27 31 33 35 31 23 26 26 24 23 20 31 30 30 33 23 7 8 14 18 23 19 15 16 20 20 18 17 24 13 9 9 6 9 14 16 17 19 15
21 21 20 21 27 28 29 31 32 28 30 29 30 27 24 24 25 28 29 17 10 13 13 7 12 7 17 12 9 21 27 28 22 22 16 5 2 2 5 8 12 15 14 9 17
20 21 21 23 24 29 28 31 34 32 26 27 25 25 22 22 20 17 17 12 9 4 11 10 11 23 23 9 20 19 23 28 25 22 14 3 6 10 10 11 15 14 12 10 18
22 23 24 29 27 27 26 25 32 34 32 30 26 29 23 23 17 17 15 16 20 20 11 20 22 15 21 22 9 15 18 16 18 13 1 5 6 7 14 17 17 17 15 10 10
22 24 25 28 25 27 24 25 28 25 28 31 30 28 19 15 22 12 17 19 27 10 3 21 16 6 13 12 11 11 12 12 16 12 7 10 6 7 2 4 7 10 12 11 10
Wind_Direction
322 318 315 312 309 305 302 296 289 280 276 272 270 269 270 270 260 226 197 191 203 122 121 141 183 141 102 105 65 136 120 72 106 98 112 118 108 121 112 104 121 156 115 124 126
322 320 317 314 310 306 304 300 294 288 279 275 272 270 270 274 245 213 199 196 209 119 149 132 150 163 59 71 60 67 90 78 40 216 132 137 102 99 109 112 119 108 98 125 127
322 320 318 314 312 308 304 300 295 292 286 278 274 273 272 264 244 205 224 185 223 218 226 212 177 89 83 60 51 122 28 92 58 90 151 155 138 136 105 114 112 118 112 124 128
320 319 317 315 313 309 305 302 296 290 287 282 277 276 274 286 299 236 217 203 271 220 217 226 257 106 47 56 63 100 106 70 74 104 103 156 189 151 120 127 121 118 129 126 127
320 317 316 315 313 309 306 302 296 289 285 283 280 280 293 284 223 209 199 254 268 222 189 192 119 49 8 44 76 107 99 58 64 93 133 181 162 155 105 109 118 118 130 137 132
318 318 315 314 312 309 306 301 293 287 284 283 284 283 294 266 267 230 308 271 250 196 209 37 75 21 26 42 64 93 69 45 34 99 145 159 169 131 108 109 117 119 130 143 139
318 317 315 312 310 309 305 301 293 285 282 285 290 298 285 228 289 286 258 243 246 320 240 227 304 13 21 27 73 67 60 84 57 98 126 148 139 117 119 113 118 124 131 145 149
318 316 314 311 308 306 303 298 291 285 286 290 297 299 276 271 264 251 248 231 238 234 125 219 288 11 27 66 59 63 54 44 144 102 136 117 140 126 131 119 118 123 133 142 153
314 311 310 309 307 305 303 297 289 295 303 306 299 293 274 269 272 256 268 274 255 254 272 261 288 346 12 60 48 63 31 60 110 152 47 76 96 150 134 129 124 126 136 147 160
309 309 307 306 306 306 303 296 308 306 310 305 290 286 279 288 283 274 265 280 280 275 295 308 309 314 320 345 17 43 36 4 45 156 125 110 166 159 162 142 140 134 143 154 160
309 309 307 304 303 305 308 321 313 303 300 283 281 273 262 286 275 278 279 273 274 287 297 291 294 291 214 40 9 69 5 32 62 125 103 150 184 164 183 134 147 150 146 158 164
308 308 308 304 301 300 339 315 316 311 288 279 262 260 252 278 277 278 283 273 277 279 289 291 282 263 313 298 328 352 7 41 46 147 146 186 151 155 168 159 161 158 162 161 156
307 308 309 304 298 337 301 300 296 302 293 284 274 262 262 281 270 266 270 270 275 274 281 289 300 236 255 169 324 348 41 92 359 51 54 78 107 103 156 174 162 175 174 168 163
304 305 309 308 322 302 294 311 301 316 297 291 286 273 265 275 273 264 271 268 270 269 274 285 288 290 298 231 319 324 179 151 47 73 78 101 35 111 149 179 196 179 169 168 169
300 301 304 306 287 295 287 293 293 321 292 317 313 305 263 268 287 267 263 262 261 267 282 281 287 270 277 192 259 228 97 165 116 120 10 19 8 8 109 176 193 185 174 172 175
295 295 299 317 310 229 267 278 304 303 287 301 334 325 287 257 268 288 264 265 268 265 276 273 280 288 295 289 294 291 336 329 319 355 337 12 21 19 119 167 173 192 181 172 173
293 289 286 301 287 309 285 288 295 291 282 301 311 339 310 265 258 267 265 255 261 268 270 274 267 275 284 276 287 291 303 316 325 334 336 6 347 0 155 151 164 178 183 168 171
292 287 287 284 281 282 287 292 289 287 281 303 307 345 306 270 265 268 259 257 269 267 282 279 279 264 283 290 280 280 294 295 310 305 319 321 332 341 87 152 192 174 171 179 175
292 295 285 281 324 298 289 274 281 317 313 308 275 343 290 262 273 271 253 267 281 252 269 281 274 278 278 283 298 284 281 296 292 306 314 321 319 359 49 73 83 109 124 156 169
295 294 283 289 358 287 276 263 270 296 300 291 275 295 331 276 266 271 264 275 279 251 257 275 270 279 281 287 290 303 284 293 297 300 298 308 317 329 22 96 92 88 73 81 131
305 292 291 280 282 272 268 261 257 259 283 291 260 268 302 295 145 275 270 258 124 267 213 272 284 270 317 289 314 303 275 289 294 299 308 309 315 296 99 108 84 72 46 45 88
300 288 299 270 278 268 269 266 264 255 262 260 284 258 281 304 248 198 181 211 170 169 264 171 299 295 293 263 295 318 273 269 267 276 304 313 312 298 336 359 43 46 354 58 32
287 282 271 264 262 261 264 259 255 243 247 264 257 267 266 272 281 195 221 233 223 171 263 289 287 291 292 292 300 293 265 256 267 284 289 295 305 317 23 22 19 5 339 277 261
282 276 271 268 258 258 262 260 249 257 257 254 248 265 272 263 266 231 215 265 257 248 252 287 309 324 306 325 321 286 253 236 258 274 295 319 49 324 59 57 45 43 54 7 198
274 270 275 266 260 260 265 260 249 246 260 269 260 259 275 273 275 252 247 248 266 312 283 310 265 217 200 102 202 246 240 233 250 264 292 162 119 108 92 86 78 45 64 86 215
271 269 269 262 262 259 259 259 251 248 251 248 254 250 275 267 279 243 242 251 251 263 294 241 221 142 253 223 281 310 268 267 261 291 11 145 123 104 105 99 81 66 93 72 76
276 272 267 257 261 253 253 266 259 272 251 237 243 257 274 257 245 269 264 276 252 244 121 223 236 298 240 246 286 293 308 278 263 267 127 148 157 143 158 101 84 97 116 100 75